Location: ??????
(56.0120°N, 39.1740°E)
Time: 20:26:23
(UTC+00:00)

Cosmos 676 Rocket - Pass Details

Date: 14 April 2026
Orbit: 750 x 779 km, 74.0° (Epoch: 16 May)

Event Time Altitude Azimuth Distance (km) Brightness Sun altitude
Rises 21:11:50 0° 331° (NNW) 3,274 8.3 -24.3°
Reaches altitude 10° 21:14:15 10° 333° (NNW) 2,340 7.4 -24.3°
Maximum altitude 21:19:35 79° 60° (ENE) 795 4.0 -24.3°
Enters shadow 21:20:32 60° 130° (SE) 885 4.0 -24.3°
